ASTRA 2D                
1 26638U 00081A   19266.22484771  .00000022  00000-0  00000+0 0  9996
2 26638   5.2549  66.0821 0002099 109.0939 272.7084  1.00271470 68732
AMC-8 (GE-8)            
1 26639U 00081B   19266.49633740  .00000093  00000-0  00000+0 0  9996
2 26639   0.0349  99.0329 0002127 116.6498 186.0588  1.00273970 68620